Fort Wayne, IN

10:11 AM EDT on March 24, 2017 (GMT -0400)
Fort Wayne International

Weather History for KFWA - July, 2013

Change the Weather History Date:

Monday, July 1, 2013

  Actual Average Record
Temperature  
Mean Temperature 66 °F 74 °F  
Max Temperature 69 °F 85 °F 99 °F (1910)
Min Temperature 62 °F 63 °F 46 °F (1950)
Degree Days  
Heating Degree Days 0 0  
Month to date heating degree days 0 0  
Since 1 June heating degree days 19 29  
Since 1 July heating degree days 0 0  
Cooling Degree Days 1 9  
Month to date cooling degree days 1 9  
Year to date cooling degree days 295 248  
Since 1 June cooling degree days 190 191  
Growing Degree Days 16 (Base 50)    
Moisture  
Dew Point 58 °F    
Average Humidity 81    
Maximum Humidity 90    
Minimum Humidity 72    
Precipitation  
Precipitation 0.20 in 0.13 in 1.29 in (1983)
Month to date precipitation 0.20 0.13  
Year to date precipitation 23.78 19.09  
Snow  
Snow 0.00 in 0.00 in T in (2014)
Month to date snowfall 0.0 0.0  
Since 1 June snowfall 0.0 0.0  
Since 1 July snowfall 0.0 0.0  
Snow Depth 0.00 in    
Sea Level Pressure  
Sea Level Pressure 29.97 in    
Wind  
Wind Speed 11 mph (NE)    
Max Wind Speed 22 mph    
Max Gust Speed 29 mph    
Visibility 8 miles    
Events Rain    
T = Trace of Precipitation, MM = Missing Value Source: NWS Daily Summary

Daily Weather History Graph

Daily Weather History Graph

Search for Another Location

Airport or City:

Trip Planner

Search our weather history database for the weather conditions in past years. The results will help you decide how hot, cold, wet, or windy it might be!

Date:

Astronomy

Jul. 01, 2013 Rise Set
Actual Time 6:12 AM EDT 9:16 PM EDT
Civil Twilight 5:39 AM EDT 9:50 PM EDT
Nautical Twilight 4:56 AM EDT 10:32 PM EDT
Astronomical Twilight 4:06 AM EDT 11:22 PM EDT
Moon 1:43 AM EDT (7/1) 3:29 PM EDT (7/1)
Length of Visible Light 16h 10m
Length of Day
15h 04m
Waning Crescent, 35% of the Moon is Illuminated
Jul 1
Waning Crescent
Jul 8
New
Jul 15
First Quarter
Jul 22
Full
Jul 29
Last Quarter

Hourly Weather History & Observations

Time (EDT) Temp. Dew Point Humidity Pressure Visibility Wind Dir Wind Speed Gust Speed Precip Events Conditions
12:54 AM 68.0 °F 61.0 °F 78% 29.92 in 10.0 mi NE 9.2 mph - N/A   Overcast
1:54 AM 68.0 °F 60.1 °F 76% 29.91 in 10.0 mi NE 8.1 mph - N/A   Mostly Cloudy
2:54 AM 66.0 °F 60.1 °F 81% 29.91 in 10.0 mi NNE 6.9 mph - N/A   Mostly Cloudy
3:54 AM 64.9 °F 59.0 °F 81% 29.90 in 10.0 mi NNE 10.4 mph - N/A   Scattered Clouds
4:54 AM 64.0 °F 57.0 °F 78% 29.92 in 10.0 mi NNE 8.1 mph - N/A   Partly Cloudy
5:54 AM 63.0 °F 55.0 °F 75% 29.93 in 10.0 mi NNE 12.7 mph - N/A   Mostly Cloudy
6:54 AM 63.0 °F 54.0 °F 72% 29.93 in 10.0 mi NNE 8.1 mph - N/A   Overcast
7:54 AM 63.0 °F 54.0 °F 72% 29.94 in 10.0 mi NNE 8.1 mph - N/A   Mostly Cloudy
8:54 AM 64.9 °F 55.0 °F 70% 29.94 in 10.0 mi NNE 10.4 mph - N/A   Mostly Cloudy
9:54 AM 64.9 °F 55.9 °F 73% 29.95 in 10.0 mi NNE 8.1 mph - N/A   Mostly Cloudy
10:54 AM 66.9 °F 57.9 °F 73% 29.96 in 10.0 mi NE 10.4 mph - N/A   Mostly Cloudy
11:54 AM 68.0 °F 59.0 °F 73% 29.98 in 10.0 mi ENE 10.4 mph 17.3 mph N/A   Mostly Cloudy
12:54 PM 63.0 °F 57.9 °F 84% 29.99 in 3.0 mi ENE 13.8 mph 20.7 mph 0.02 in Rain Light Rain
1:54 PM 62.1 °F 59.0 °F 90% 29.98 in 3.0 mi NNE 8.1 mph - 0.17 in Rain Light Rain
2:54 PM 64.0 °F 60.1 °F 87% 29.97 in 3.0 mi NNE 15.0 mph - 0.01 in Rain Light Rain
3:29 PM 64.4 °F 60.8 °F 88% 29.98 in 3.0 mi NNE 13.8 mph - 0.00 in   Overcast
3:54 PM 64.9 °F 61.0 °F 87% 29.98 in 3.0 mi NNE 8.1 mph - 0.00 in Rain Light Rain
4:54 PM 68.0 °F 62.1 °F 81% 29.98 in 3.0 mi NNE 11.5 mph - 0.00 in   Overcast
5:13 PM 69.8 °F 62.6 °F 78% 29.98 in 3.0 mi NE 11.5 mph - N/A   Overcast
5:43 PM 68.0 °F 62.6 °F 83% 29.99 in 3.0 mi ENE 16.1 mph 20.7 mph N/A   Overcast
5:54 PM 68.0 °F 61.0 °F 78% 29.99 in 3.0 mi ENE 13.8 mph 23.0 mph N/A   Overcast
6:05 PM 68.0 °F 60.8 °F 78% 30.00 in 8.0 mi NE 12.7 mph - N/A   Overcast
6:54 PM 68.0 °F 59.0 °F 73% 29.99 in 6.0 mi NE 16.1 mph 23.0 mph N/A   Haze
7:54 PM 66.9 °F 59.0 °F 76% 30.01 in 10.0 mi ENE 19.6 mph 25.3 mph N/A   Overcast
8:54 PM 66.0 °F 57.0 °F 73% 30.01 in 10.0 mi NE 13.8 mph 25.3 mph N/A   Overcast
9:54 PM 64.9 °F 55.0 °F 70% 30.01 in 10.0 mi NE 12.7 mph 24.2 mph N/A   Overcast
10:54 PM 64.0 °F 55.9 °F 75% 30.01 in 10.0 mi NE 11.5 mph - N/A   Overcast
11:54 PM 64.0 °F 55.9 °F 75% 30.01 in 10.0 mi NE 16.1 mph - N/A   Overcast